Torna al catalogo

STARLINK-2755

AttivoComunicazioniVLEO
NORAD 48479·PAYLOAD·🇺🇸 United States

Lanciato May 9, 2021 da Cape Canaveral Space Force Station

Loading…

Prossimi Passaggi (prossime 24 ore)

TLE

AggiornatoSource: CelesTrak SupGP

Epoca: Sep 14, 2026, 20:49 UTC

1 48479C 21040BD  26257.86784722  .00040834  00000+0  13131-2 0  2571
2 48479  53.1605  30.9965 0001175  82.2332  92.7390 15.31681479    16

Traccia STARLINK-2755 in tempo reale con AllMySat

Download on the App Store